Location: Bittkow
(50.3000°N, 19.0000°E)
Time: 05:09:46
(UTC+00:00)

USA 305 - Pass Details

Date: 19 September 2020
Orbit: 565 x 582 km, 54.0° (Epoch: 19 October)

Event Time Altitude Azimuth Distance (km) Brightness Sun altitude
Exits shadow 02:22:46 46° 204° (SSW) 769 3.2 -19.7°
Maximum altitude 02:23:46 62° 149° (SSE) 643 3.1 -19.5°
Drops below altitude 10° 02:27:57 10° 69° (ENE) 1,867 6.8 -18.9°
Sets 02:30:13 0° 66° (ENE) 2,765 8.1 -18.6°
